Weather History for Pensacola NAS, FL

Change the Weather History Date:

Sunday, October 14, 2012

  Actual Average Record
Temperature  
Mean Temperature 78 °F -  
Max Temperature 82 °F 77 °F 86 °F (1998)
Min Temperature 73 °F 59 °F 46 °F (2006)
Cooling Degree Days 14    
Growing Degree Days 28 (Base 50)    
Moisture  
Dew Point 71 °F    
Average Humidity 81    
Maximum Humidity 93    
Minimum Humidity 71    
Precipitation  
Precipitation 0.00 in - - ()
Sea Level Pressure  
Sea Level Pressure 30.08 in    
Wind  
Wind Speed 5 mph (SSE)    
Max Wind Speed 7 mph    
Max Gust Speed -    
Visibility 10 miles    
Events      
Averages and records for this station are not official NWS values.
T = Trace of Precipitation, MM = Missing Value Source: NWS Daily Summary

Daily Weather History Graph

Daily Weather History Graph

Search for Another Location

Airport:

Trip Planner

Search our weather history database for the weather conditions in past years. The results will help you decide how hot, cold, wet, or windy it might be!

Date:

Astronomy

Oct. 14, 2012 Rise Set
Actual Time 6:51 AM CDT 6:18 PM CDT
Civil Twilight 6:26 AM CDT 6:42 PM CDT
Nautical Twilight 5:59 AM CDT 7:10 PM CDT
Astronomical Twilight 5:31 AM CDT 7:38 PM CDT
Moon 5:51 AM CDT (10/14) 5:39 PM CDT (10/14)
Length of Visible Light 12h 15m
Length of Day
11h 27m
Waning Crescent, 1% of the Moon is Illuminated
Oct 14
Waning Crescent
Oct 15
New
Oct 21
First Quarter
Oct 29
Full
Nov 6
Last Quarter

Hourly Weather History & Observations

Time (CDT) Temp. Heat Index Dew Point Humidity Pressure Visibility Wind Dir Wind Speed Gust Speed Precip Events Conditions
12:56 AM 75.0 °F - 68.0 °F 79% 30.14 in 10.0 mi North - - N/A   Clear
1:56 AM 75.9 °F - 68.0 °F 76% 30.12 in 10.0 mi North - - N/A   Clear
2:56 AM 75.9 °F - 66.0 °F 71% 30.11 in 10.0 mi North - - N/A   Clear
3:56 AM 75.9 °F - 66.9 °F 74% 30.09 in 10.0 mi North - - N/A   Clear
4:56 AM 75.0 °F - 69.1 °F 82% 30.08 in 10.0 mi North - - N/A   Clear
5:56 AM 75.9 °F - 71.1 °F 85% 30.09 in 10.0 mi North - - N/A   Mostly Cloudy
6:56 AM 75.9 °F - 72.0 °F 87% 30.09 in 10.0 mi North - - N/A   Mostly Cloudy
7:04 AM 75.2 °F - 71.6 °F 89% 30.09 in 10.0 mi North - - N/A   Mostly Cloudy
7:51 AM 77.0 °F - 71.6 °F 83% 30.10 in 10.0 mi North - - N/A   Mostly Cloudy
7:56 AM 77.0 °F - 71.1 °F 82% 30.11 in 10.0 mi North - - N/A   Overcast
8:53 AM 78.8 °F - 71.6 °F 78% 30.11 in 10.0 mi North - - N/A   Mostly Cloudy
8:56 AM 78.1 °F - 71.1 °F 79% 30.12 in 10.0 mi North - - N/A   Mostly Cloudy
9:56 AM 79.0 °F - 72.0 °F 79% 30.15 in 10.0 mi North - - N/A   Overcast
10:29 AM 78.8 °F - 71.6 °F 78% 30.15 in 10.0 mi North - - N/A   Overcast
10:56 AM 81.0 °F 85.8 °F 73.0 °F 77% 30.16 in 10.0 mi North - - N/A   Mostly Cloudy
11:56 AM 81.0 °F 85.2 °F 72.0 °F 74% 30.14 in 10.0 mi North - - N/A   Mostly Cloudy
12:56 PM 81.0 °F 85.8 °F 73.0 °F 77% 30.12 in 10.0 mi SSE 3.5 mph - N/A   Mostly Cloudy
1:56 PM 82.0 °F 87.9 °F 73.9 °F 76% 30.09 in 10.0 mi SSE 6.9 mph - N/A   Mostly Cloudy
2:56 PM 81.0 °F 85.8 °F 73.0 °F 77% 30.06 in 10.0 mi SSE 5.8 mph - N/A   Mostly Cloudy
3:56 PM 80.1 °F 83.8 °F 72.0 °F 76% 30.06 in 10.0 mi SSE 5.8 mph - N/A   Mostly Cloudy
4:56 PM 78.1 °F - 72.0 °F 81% 30.04 in 10.0 mi SE 6.9 mph - N/A   Mostly Cloudy
5:56 PM 77.0 °F - 72.0 °F 84% 30.02 in 10.0 mi SE 5.8 mph - N/A   Overcast
6:56 PM 77.0 °F - 72.0 °F 84% 30.01 in 10.0 mi SSE 5.8 mph - N/A   Overcast
7:56 PM 75.0 °F - 70.0 °F 84% 30.02 in 10.0 mi South 5.8 mph - N/A   Overcast
8:30 PM 75.2 °F - 69.8 °F 83% 30.02 in 10.0 mi Variable 3.5 mph - N/A   Overcast
8:56 PM 75.0 °F - 70.0 °F 84% 30.03 in 10.0 mi North - - N/A   Clear
9:56 PM 75.0 °F - 70.0 °F 84% 30.03 in 10.0 mi North - - N/A   Clear
10:56 PM 75.0 °F - 71.1 °F 87% 30.03 in 10.0 mi North - - N/A   Clear
11:56 PM 73.0 °F - 71.1 °F 93% 30.01 in 10.0 mi North - - N/A   Clear